When you browse on this site, cookies collect data to enhance your experience and personalize the content and advertising you see.
Visit our Privacy Policy to learn more. By continuing to use the site, you agree to this use of cookies and data.
  • In Hungary
  • List of Countries
  • For 7 days
  • Water Temperature
  • Weather Map
  • News
  • Weather Widgets
  • user-avatar
    Login

    Hourly Weather Gloucester

    Today, 4 June, Thursday

    Time Temperature Precipitation Wind Pressure Humidity
    00:00 +8°C° 0 mm 3 mps 750 mmHg 93%
    01:00 +7°C° 0 mm 3 mps 750 mmHg 94%
    02:00 +5°C° 0 mm 3 mps 749 mmHg 94%
    03:00 +6°C° 0 mm 2 mps 749 mmHg 94%
    04:00 +5°C° 0 mm 3 mps 749 mmHg 93%
    05:00 +7°C° 0 mm 3 mps 749 mmHg 92%
    06:00 +8°C° 0 mm 3 mps 749 mmHg 91%
    07:00 +9°C° 0 mm 3 mps 748 mmHg 85%
    08:00 +11°C° 0 mm 3 mps 748 mmHg 79%
    09:00 +12°C° 0 mm 4 mps 748 mmHg 73%
    10:00 +13°C° 0.1 mm 4 mps 748 mmHg 72%
    11:00 +13°C° 0.1 mm 4 mps 747 mmHg 70%
    12:00 +14°C° 0.1 mm 4 mps 747 mmHg 69%
    13:00 +14°C° 0.1 mm 4 mps 747 mmHg 69%
    14:00 +14°C° 0.1 mm 5 mps 746 mmHg 69%
    15:00 +14°C° 0.1 mm 5 mps 746 mmHg 69%
    16:00 +14°C° 0.1 mm 5 mps 745 mmHg 71%
    17:00 +13°C° 0.1 mm 5 mps 745 mmHg 74%
    18:00 +12°C° 0.1 mm 5 mps 744 mmHg 77%
    19:00 +11°C° 0 mm 4 mps 744 mmHg 81%
    20:00 +11°C° 0 mm 4 mps 744 mmHg 86%
    21:00 +10°C° 0 mm 3 mps 744 mmHg 91%
    22:00 +10°C° 0 mm 4 mps 743 mmHg 91%
    23:00 +8°C° 0 mm 4 mps 743 mmHg 92%

    Tomorrow, 5 June, Friday

    Time Temperature Precipitation Wind Pressure Humidity
    00:00 +8°C° 0 mm 4 mps 743 mmHg 92%
    01:00 +7°C° 0 mm 4 mps 743 mmHg 92%
    02:00 +6°C° 0 mm 4 mps 742 mmHg 91%
    03:00 +5°C° 0 mm 5 mps 742 mmHg 91%
    04:00 +6°C° 0 mm 5 mps 742 mmHg 88%
    05:00 +5°C° 0 mm 6 mps 742 mmHg 85%
    06:00 +7°C° 0 mm 6 mps 742 mmHg 82%
    07:00 +8°C° 0 mm 7 mps 742 mmHg 75%
    08:00 +9°C° 0 mm 8 mps 742 mmHg 68%
    09:00 +11°C° 0 mm 8 mps 742 mmHg 61%
    10:00 +11°C° 0.1 mm 8 mps 742 mmHg 61%
    11:00 +12°C° 0.1 mm 8 mps 742 mmHg 61%
    12:00 +12°C° 0.1 mm 8 mps 742 mmHg 61%
    13:00 +12°C° 0.4 mm 8 mps 742 mmHg 62%
    14:00 +12°C° 0.4 mm 8 mps 742 mmHg 63%
    15:00 +12°C° 0.4 mm 9 mps 742 mmHg 64%
    16:00 +11°C° 0.2 mm 8 mps 742 mmHg 67%
    17:00 +11°C° 0.2 mm 7 mps 742 mmHg 70%
    18:00 +10°C° 0.2 mm 7 mps 742 mmHg 73%
    19:00 +9°C° 0.1 mm 6 mps 742 mmHg 75%
    20:00 +7°C° 0.1 mm 5 mps 742 mmHg 77%
    21:00 +6°C° 0.1 mm 5 mps 743 mmHg 79%
    22:00 +5°C° 0 mm 5 mps 743 mmHg 80%
    23:00 +5°C° 0 mm 5 mps 742 mmHg 81%

    Day after tomorrow, 6 June, Saturday

    Time Temperature Precipitation Wind Pressure Humidity
    00:00 +5°C° 0 mm 5 mps 742 mmHg 81%
    01:00 +4°C° 0 mm 6 mps 742 mmHg 79%
    02:00 +4°C° 0 mm 7 mps 742 mmHg 78%
    03:00 +5°C° 0 mm 8 mps 742 mmHg 76%
    04:00 +5°C° 0 mm 8 mps 741 mmHg 76%
    05:00 +6°C° 0 mm 9 mps 741 mmHg 77%
    06:00 +6°C° 0 mm 9 mps 741 mmHg 77%
    07:00 +7°C° 0.3 mm 9 mps 741 mmHg 81%
    08:00 +7°C° 0.3 mm 8 mps 741 mmHg 84%
    09:00 +9°C° 0.3 mm 8 mps 742 mmHg 87%
    10:00 +10°C° 0.6 mm 8 mps 742 mmHg 84%
    11:00 +12°C° 0.6 mm 7 mps 742 mmHg 80%
    12:00 +14°C° 0.6 mm 7 mps 743 mmHg 76%
    13:00 +14°C° 0.6 mm 7 mps 743 mmHg 74%
    14:00 +15°C° 0.6 mm 6 mps 743 mmHg 73%
    15:00 +15°C° 0.6 mm 6 mps 744 mmHg 71%
    16:00 +14°C° 0.3 mm 6 mps 744 mmHg 74%
    17:00 +14°C° 0.3 mm 6 mps 745 mmHg 76%
    18:00 +14°C° 0.3 mm 5 mps 745 mmHg 79%
    19:00 +12°C° 0 mm 5 mps 746 mmHg 82%
    20:00 +10°C° 0 mm 5 mps 746 mmHg 86%
    21:00 +10°C° 0 mm 4 mps 747 mmHg 89%
    22:00 +8°C° 0 mm 4 mps 747 mmHg 91%
    23:00 +8°C° 0 mm 4 mps 747 mmHg 92%

    7 June, Sunday

    Time Temperature Precipitation Wind Pressure Humidity
    00:00 +8°C° 0 mm 3 mps 747 mmHg 94%
    01:00 +8°C° 0 mm 3 mps 747 mmHg 94%
    02:00 +8°C° 0 mm 3 mps 747 mmHg 94%
    03:00 +8°C° 0 mm 3 mps 747 mmHg 94%
    04:00 +8°C° 0 mm 4 mps 748 mmHg 92%
    05:00 +8°C° 0 mm 4 mps 748 mmHg 91%
    06:00 +10°C° 0 mm 4 mps 748 mmHg 89%
    07:00 +11°C° 0.1 mm 4 mps 748 mmHg 88%
    08:00 +12°C° 0.1 mm 4 mps 749 mmHg 87%
    09:00 +12°C° 0.1 mm 4 mps 749 mmHg 86%
    10:00 +13°C° 0.4 mm 4 mps 750 mmHg 84%
    11:00 +14°C° 0.4 mm 4 mps 750 mmHg 83%
    12:00 +15°C° 0.4 mm 4 mps 750 mmHg 82%
    13:00 +15°C° 0.8 mm 4 mps 751 mmHg 81%
    14:00 +17°C° 0.8 mm 4 mps 751 mmHg 80%
    15:00 +17°C° 0.8 mm 4 mps 751 mmHg 79%
    16:00 +15°C° 0.8 mm 4 mps 752 mmHg 82%
    17:00 +15°C° 0.8 mm 4 mps 752 mmHg 84%
    18:00 +14°C° 0.8 mm 4 mps 752 mmHg 87%
    19:00 +13°C° 0.1 mm 3 mps 753 mmHg 89%
    20:00 +12°C° 0.1 mm 2 mps 753 mmHg 90%
    21:00 +10°C° 0.1 mm 2 mps 754 mmHg 92%
    22:00 +10°C° 0 mm 1 mps 754 mmHg 92%
    23:00 +10°C° 0 mm 1 mps 754 mmHg 92%

    8 June, Monday

    Time Temperature Precipitation Wind Pressure Humidity
    00:00 +10°C° 0 mm 1 mps 755 mmHg 92%
    01:00 +10°C° 0 mm 1 mps 755 mmHg 93%
    02:00 +10°C° 0 mm 1 mps 755 mmHg 93%
    03:00 +9°C° 0 mm 1 mps 755 mmHg 94%
    04:00 +10°C° 0.1 mm 1 mps 755 mmHg 94%
    05:00 +9°C° 0.1 mm 2 mps 756 mmHg 94%
    06:00 +10°C° 0.1 mm 2 mps 756 mmHg 94%
    07:00 +10°C° 0.1 mm 2 mps 757 mmHg 91%
    08:00 +12°C° 0.1 mm 2 mps 757 mmHg 88%
    09:00 +12°C° 0.1 mm 2 mps 757 mmHg 86%
    10:00 +13°C° 0 mm 2 mps 758 mmHg 83%
    11:00 +13°C° 0 mm 2 mps 758 mmHg 80%
    12:00 +13°C° 0 mm 3 mps 758 mmHg 77%
    13:00 +15°C° 0 mm 2 mps 758 mmHg 73%
    14:00 +15°C° 0 mm 2 mps 758 mmHg 70%
    15:00 +16°C° 0 mm 2 mps 758 mmHg 66%
    16:00 +15°C° 0 mm 2 mps 758 mmHg 69%
    17:00 +15°C° 0 mm 2 mps 758 mmHg 72%
    18:00 +15°C° 0 mm 2 mps 758 mmHg 75%
    19:00 +13°C° 0 mm 2 mps 759 mmHg 79%
    20:00 +12°C° 0 mm 2 mps 759 mmHg 83%
    21:00 +10°C° 0 mm 2 mps 759 mmHg 87%
    22:00 +9°C° 0 mm 2 mps 760 mmHg 86%
    23:00 +8°C° 0 mm 2 mps 760 mmHg 86%

    9 June, Tuesday

    Time Temperature Precipitation Wind Pressure Humidity
    00:00 +8°C° 0 mm 2 mps 760 mmHg 85%
    01:00 +7°C° 0 mm 2 mps 760 mmHg 86%
    02:00 +8°C° 0 mm 1 mps 760 mmHg 86%
    03:00 +7°C° 0 mm 1 mps 760 mmHg 86%
    04:00 +8°C° 0 mm 1 mps 760 mmHg 85%
    05:00 +9°C° 0 mm 1 mps 761 mmHg 83%
    06:00 +9°C° 0 mm 1 mps 761 mmHg 82%
    07:00 +11°C° 0 mm 1 mps 761 mmHg 76%
    08:00 +12°C° 0 mm 1 mps 761 mmHg 70%
    09:00 +13°C° 0 mm 2 mps 761 mmHg 64%
    10:00 +14°C° 0 mm 2 mps 761 mmHg 62%
    11:00 +15°C° 0 mm 2 mps 761 mmHg 59%
    12:00 +16°C° 0 mm 2 mps 761 mmHg 57%
    13:00 +16°C° 0 mm 1 mps 761 mmHg 57%
    14:00 +16°C° 0 mm 1 mps 761 mmHg 58%
    15:00 +16°C° 0 mm 1 mps 761 mmHg 58%
    16:00 +16°C° 0 mm 1 mps 761 mmHg 62%
    17:00 +16°C° 0 mm 1 mps 761 mmHg 65%
    18:00 +15°C° 0 mm 1 mps 761 mmHg 69%
    19:00 +14°C° 0 mm 1 mps 761 mmHg 71%
    20:00 +13°C° 0 mm 1 mps 762 mmHg 73%
    21:00 +12°C° 0 mm 1 mps 762 mmHg 74%
    22:00 +12°C° 0 mm 1 mps 762 mmHg 74%
    23:00 +11°C° 0 mm 1 mps 762 mmHg 75%
    Show more